Year,Month,Day,Hour,Minute,Value (Times are PST for temperature in C)
2016,09,21,00,00,9.50
2016,09,21,00,01,9.40
2016,09,21,00,02,9.40
2016,09,21,00,03,9.40
2016,09,21,00,04,9.40
2016,09,21,00,05,9.40
2016,09,21,00,06,9.30
2016,09,21,00,07,9.30
2016,09,21,00,08,9.30
2016,09,21,00,09,9.30
2016,09,21,00,10,9.30
2016,09,21,00,11,9.30
2016,09,21,00,12,9.30
2016,09,21,00,13,9.30
2016,09,21,00,14,9.30
2016,09,21,00,15,9.30
2016,09,21,00,16,9.30
2016,09,21,00,17,9.30
2016,09,21,00,18,9.30
2016,09,21,00,19,9.30
2016,09,21,00,20,9.30
2016,09,21,00,21,9.30
2016,09,21,00,22,9.30
2016,09,21,00,23,9.20
2016,09,21,00,24,9.20
2016,09,21,00,25,9.20
2016,09,21,00,26,9.20
2016,09,21,00,27,9.20
2016,09,21,00,28,9.20
2016,09,21,00,29,9.20
2016,09,21,00,30,9.20
2016,09,21,00,31,9.20
2016,09,21,00,32,9.20
2016,09,21,00,33,9.20
2016,09,21,00,34,9.20
2016,09,21,00,35,9.20
2016,09,21,00,36,9.20
2016,09,21,00,37,9.20
2016,09,21,00,38,9.20
2016,09,21,00,39,9.20
2016,09,21,00,40,9.20
2016,09,21,00,41,9.20
2016,09,21,00,42,9.20
2016,09,21,00,43,9.20
2016,09,21,00,44,9.20
2016,09,21,00,45,9.20
2016,09,21,00,46,9.20
2016,09,21,00,47,9.20
2016,09,21,00,48,9.20
2016,09,21,00,49,9.20
2016,09,21,00,50,9.20
2016,09,21,00,51,9.20
2016,09,21,00,52,9.10
2016,09,21,00,53,9.10
2016,09,21,00,54,9.10
2016,09,21,00,55,9.10
2016,09,21,00,56,9.10
2016,09,21,00,57,9.10
2016,09,21,00,58,9.10
2016,09,21,00,59,9.10
2016,09,21,01,00,9.10
2016,09,21,01,01,9.10
2016,09,21,01,02,9.10
2016,09,21,01,03,9.00
2016,09,21,01,04,9.00
2016,09,21,01,05,9.00
2016,09,21,01,06,9.00
2016,09,21,01,07,9.00
2016,09,21,01,08,8.90
2016,09,21,01,09,8.90
2016,09,21,01,10,8.90
2016,09,21,01,11,8.90
2016,09,21,01,12,8.90
2016,09,21,01,13,8.80
2016,09,21,01,14,8.80
2016,09,21,01,15,8.80
2016,09,21,01,16,8.80
2016,09,21,01,17,8.80
2016,09,21,01,18,8.90
2016,09,21,01,19,8.80
2016,09,21,01,20,8.80
2016,09,21,01,21,8.80
2016,09,21,01,22,8.80
2016,09,21,01,23,8.80
2016,09,21,01,24,8.80
2016,09,21,01,25,8.80
2016,09,21,01,26,8.80
2016,09,21,01,27,8.80
2016,09,21,01,28,8.80
2016,09,21,01,29,8.80
2016,09,21,01,30,8.80
2016,09,21,01,31,8.80
2016,09,21,01,32,8.80
2016,09,21,01,33,8.80
2016,09,21,01,34,8.80
2016,09,21,01,35,8.80
2016,09,21,01,36,8.80
2016,09,21,01,37,8.80
2016,09,21,01,38,8.80
2016,09,21,01,39,8.80
2016,09,21,01,40,8.80
2016,09,21,01,41,8.80
2016,09,21,01,42,8.70
2016,09,21,01,43,8.70
2016,09,21,01,44,8.70
2016,09,21,01,45,8.80
2016,09,21,01,46,8.80
2016,09,21,01,47,8.80
2016,09,21,01,48,8.80
2016,09,21,01,49,8.80
2016,09,21,01,50,8.80
2016,09,21,01,51,8.80
2016,09,21,01,52,8.80
2016,09,21,01,53,8.90
2016,09,21,01,54,8.80
2016,09,21,01,55,8.80
2016,09,21,01,56,8.80
2016,09,21,01,57,8.80
2016,09,21,01,58,8.80
2016,09,21,01,59,8.80
2016,09,21,02,00,8.80
2016,09,21,02,01,8.80
2016,09,21,02,02,8.80
2016,09,21,02,03,8.80
2016,09,21,02,04,8.80
2016,09,21,02,05,8.70
2016,09,21,02,06,8.70
2016,09,21,02,07,8.70
2016,09,21,02,08,8.70
2016,09,21,02,09,8.70
2016,09,21,02,10,8.70
2016,09,21,02,11,8.70
2016,09,21,02,12,8.70
2016,09,21,02,13,8.70
2016,09,21,02,14,8.60
2016,09,21,02,15,8.60
2016,09,21,02,16,8.60
2016,09,21,02,17,8.60
2016,09,21,02,18,8.60
2016,09,21,02,19,8.60
2016,09,21,02,20,8.60
2016,09,21,02,21,8.50
2016,09,21,02,22,8.50
2016,09,21,02,23,8.50
2016,09,21,02,24,8.50
2016,09,21,02,25,8.50
2016,09,21,02,26,8.50
2016,09,21,02,27,8.50
2016,09,21,02,28,8.50
2016,09,21,02,29,8.50
2016,09,21,02,30,8.50
2016,09,21,02,31,8.60
2016,09,21,02,32,8.60
2016,09,21,02,33,8.50
2016,09,21,02,34,8.60
2016,09,21,02,35,8.60
2016,09,21,02,36,8.60
2016,09,21,02,37,8.60
2016,09,21,02,38,8.60
2016,09,21,02,39,8.60
2016,09,21,02,40,8.50
2016,09,21,02,41,8.50
2016,09,21,02,42,8.50
2016,09,21,02,43,8.50
2016,09,21,02,44,8.50
2016,09,21,02,45,8.50
2016,09,21,02,46,8.50
2016,09,21,02,47,8.50
2016,09,21,02,48,8.50
2016,09,21,02,49,8.50
2016,09,21,02,50,8.40
2016,09,21,02,51,8.40
2016,09,21,02,52,8.40
2016,09,21,02,53,8.40
2016,09,21,02,54,8.40
2016,09,21,02,55,8.40
2016,09,21,02,56,8.40
2016,09,21,02,57,8.40
2016,09,21,02,58,8.40
2016,09,21,02,59,8.40
2016,09,21,03,00,8.40
2016,09,21,03,01,8.40
2016,09,21,03,02,8.40
2016,09,21,03,03,8.40
2016,09,21,03,04,8.40
2016,09,21,03,05,8.40
2016,09,21,03,06,8.40
2016,09,21,03,07,8.40
2016,09,21,03,08,8.40
2016,09,21,03,09,8.40
2016,09,21,03,10,8.40
2016,09,21,03,11,8.40
2016,09,21,03,12,8.40
2016,09,21,03,13,8.40
2016,09,21,03,14,8.40
2016,09,21,03,15,8.30
2016,09,21,03,16,8.30
2016,09,21,03,17,8.30
2016,09,21,03,18,8.30
2016,09,21,03,19,8.30
2016,09,21,03,20,8.30
2016,09,21,03,21,8.40
2016,09,21,03,22,8.40
2016,09,21,03,23,8.40
2016,09,21,03,24,8.40
2016,09,21,03,25,8.40
2016,09,21,03,26,8.40
2016,09,21,03,27,8.40
2016,09,21,03,28,8.40
2016,09,21,03,29,8.40
2016,09,21,03,30,8.40
2016,09,21,03,31,8.40
2016,09,21,03,32,8.40
2016,09,21,03,33,8.40
2016,09,21,03,34,8.40
2016,09,21,03,35,8.40
2016,09,21,03,36,8.40
2016,09,21,03,37,8.40
2016,09,21,03,38,8.40
2016,09,21,03,39,8.40
2016,09,21,03,40,8.40
2016,09,21,03,41,8.40
2016,09,21,03,42,8.40
2016,09,21,03,43,8.30
2016,09,21,03,44,8.30
2016,09,21,03,45,8.30
2016,09,21,03,46,8.30
2016,09,21,03,47,8.30
2016,09,21,03,48,8.30
2016,09,21,03,49,8.30
2016,09,21,03,50,8.30
2016,09,21,03,51,8.30
2016,09,21,03,52,8.30
2016,09,21,03,53,8.20
2016,09,21,03,54,8.20
2016,09,21,03,55,8.20
2016,09,21,03,56,8.20
2016,09,21,03,57,8.20
2016,09,21,03,58,8.20
2016,09,21,03,59,8.20
2016,09,21,04,00,8.20
2016,09,21,04,01,8.20
2016,09,21,04,02,8.20
2016,09,21,04,03,8.20
2016,09,21,04,04,8.30
2016,09,21,04,05,8.30
2016,09,21,04,06,8.40
2016,09,21,04,07,8.40
2016,09,21,04,08,8.50
2016,09,21,04,09,8.60
2016,09,21,04,10,8.60
2016,09,21,04,11,8.60
2016,09,21,04,12,8.70
2016,09,21,04,13,8.70
2016,09,21,04,14,8.70
2016,09,21,04,15,8.70
2016,09,21,04,16,8.70
2016,09,21,04,17,8.70
2016,09,21,04,18,8.70
2016,09,21,04,19,8.60
2016,09,21,04,20,8.60
2016,09,21,04,21,8.60
2016,09,21,04,22,8.60
2016,09,21,04,23,8.50
2016,09,21,04,24,8.50
2016,09,21,04,25,8.40
2016,09,21,04,26,8.40
2016,09,21,04,27,8.40
2016,09,21,04,28,8.40
2016,09,21,04,29,8.40
2016,09,21,04,30,8.30
2016,09,21,04,31,8.30
2016,09,21,04,32,8.30
2016,09,21,04,33,8.30
2016,09,21,04,34,8.30
2016,09,21,04,35,8.30
2016,09,21,04,36,8.30
2016,09,21,04,37,8.30
2016,09,21,04,38,8.30
2016,09,21,04,39,8.30
2016,09,21,04,40,8.30
2016,09,21,04,41,8.20
2016,09,21,04,42,8.20
2016,09,21,04,43,8.20
2016,09,21,04,44,8.20
2016,09,21,04,45,8.20
2016,09,21,04,46,8.20
2016,09,21,04,47,8.20
2016,09,21,04,48,8.20
2016,09,21,04,49,8.20
2016,09,21,04,50,8.10
2016,09,21,04,51,8.10
2016,09,21,04,52,8.10
2016,09,21,04,53,8.10
2016,09,21,04,54,8.10
2016,09,21,04,55,8.10
2016,09,21,04,56,8.10
2016,09,21,04,57,8.00
2016,09,21,04,58,8.00
2016,09,21,04,59,8.00
2016,09,21,05,00,8.10
2016,09,21,05,01,8.10
2016,09,21,05,02,8.10
2016,09,21,05,03,8.10
2016,09,21,05,04,8.10
2016,09,21,05,05,8.10
2016,09,21,05,06,8.10
2016,09,21,05,07,8.10
2016,09,21,05,08,8.10
2016,09,21,05,09,8.10
2016,09,21,05,10,8.10
2016,09,21,05,11,8.00
2016,09,21,05,12,8.00
2016,09,21,05,13,8.00
2016,09,21,05,14,8.00
2016,09,21,05,15,8.00
2016,09,21,05,16,8.00
2016,09,21,05,17,8.00
2016,09,21,05,18,8.10
2016,09,21,05,19,8.10
2016,09,21,05,20,8.20
2016,09,21,05,21,8.20
2016,09,21,05,22,8.20
2016,09,21,05,23,8.20
2016,09,21,05,24,8.20
2016,09,21,05,25,8.20
2016,09,21,05,26,8.20
2016,09,21,05,27,8.20
2016,09,21,05,28,8.20
2016,09,21,05,29,8.20
2016,09,21,05,30,8.20
2016,09,21,05,31,8.10
2016,09,21,05,32,8.10
2016,09,21,05,33,8.10
2016,09,21,05,34,8.10
2016,09,21,05,35,8.00
2016,09,21,05,36,8.00
2016,09,21,05,37,8.00
2016,09,21,05,38,8.00
2016,09,21,05,39,7.90
2016,09,21,05,40,7.90
2016,09,21,05,41,7.90
2016,09,21,05,42,7.90
2016,09,21,05,43,7.90
2016,09,21,05,44,7.90
2016,09,21,05,45,7.80
2016,09,21,05,46,7.80
2016,09,21,05,47,7.80
2016,09,21,05,48,7.80
2016,09,21,05,49,7.80
2016,09,21,05,50,7.80
2016,09,21,05,51,7.70
2016,09,21,05,52,7.70
2016,09,21,05,53,7.70
2016,09,21,05,54,7.70
2016,09,21,05,55,7.70
2016,09,21,05,56,7.70
2016,09,21,05,57,7.70
2016,09,21,05,58,7.70
2016,09,21,05,59,7.70
2016,09,21,06,00,7.70
2016,09,21,06,01,7.70
2016,09,21,06,02,7.70
2016,09,21,06,03,7.70
2016,09,21,06,04,7.70
2016,09,21,06,05,7.70
2016,09,21,06,06,7.70
2016,09,21,06,07,7.70
2016,09,21,06,08,7.70
2016,09,21,06,09,7.70
2016,09,21,06,10,7.80
2016,09,21,06,11,7.80
2016,09,21,06,12,7.80
2016,09,21,06,13,7.80
2016,09,21,06,14,7.80
2016,09,21,06,15,7.80
2016,09,21,06,16,7.80
2016,09,21,06,17,7.80
2016,09,21,06,18,7.70
2016,09,21,06,19,7.70
2016,09,21,06,20,7.70
2016,09,21,06,21,7.70
2016,09,21,06,22,7.70
2016,09,21,06,23,7.70
2016,09,21,06,24,7.70
2016,09,21,06,25,7.60
2016,09,21,06,26,7.60
2016,09,21,06,27,7.60
2016,09,21,06,28,7.60
2016,09,21,06,29,7.60
2016,09,21,06,30,7.50
2016,09,21,06,31,7.50
2016,09,21,06,32,7.50
2016,09,21,06,33,7.50
2016,09,21,06,34,7.40
2016,09,21,06,35,7.40
2016,09,21,06,36,7.40
2016,09,21,06,37,7.40
2016,09,21,06,38,7.40
2016,09,21,06,39,7.50
2016,09,21,06,40,7.50
2016,09,21,06,41,7.50
2016,09,21,06,42,7.50
2016,09,21,06,43,7.50
2016,09,21,06,44,7.50
2016,09,21,06,45,7.50
2016,09,21,06,46,7.50
2016,09,21,06,47,7.50
2016,09,21,06,48,7.50
2016,09,21,06,49,7.50
2016,09,21,06,50,7.50
2016,09,21,06,51,7.50
2016,09,21,06,52,7.40
2016,09,21,06,53,7.40
2016,09,21,06,54,7.40
2016,09,21,06,55,7.50
2016,09,21,06,56,7.50
2016,09,21,06,57,7.50
2016,09,21,06,58,7.60
2016,09,21,06,59,7.60
2016,09,21,07,00,7.60
2016,09,21,07,01,7.60
2016,09,21,07,02,7.60
2016,09,21,07,03,7.50
2016,09,21,07,04,7.50
2016,09,21,07,05,7.50
2016,09,21,07,06,7.50
2016,09,21,07,07,7.40
2016,09,21,07,08,7.40
2016,09,21,07,09,7.40
2016,09,21,07,10,7.40
2016,09,21,07,11,7.40
2016,09,21,07,12,7.40
2016,09,21,07,13,7.40
2016,09,21,07,14,7.40
2016,09,21,07,15,7.40
2016,09,21,07,16,7.50
2016,09,21,07,17,7.50
2016,09,21,07,18,7.60
2016,09,21,07,19,7.70
2016,09,21,07,20,7.70
2016,09,21,07,21,7.70
2016,09,21,07,22,7.80
2016,09,21,07,23,7.80
2016,09,21,07,24,7.80
2016,09,21,07,25,7.80
2016,09,21,07,26,7.80
2016,09,21,07,27,7.80
2016,09,21,07,28,7.80
2016,09,21,07,29,7.80
2016,09,21,07,30,7.80
2016,09,21,07,31,7.80
2016,09,21,07,32,7.80
2016,09,21,07,33,7.80
2016,09,21,07,34,7.80
2016,09,21,07,35,7.80
2016,09,21,07,36,7.80
2016,09,21,07,37,7.80
2016,09,21,07,38,7.80
2016,09,21,07,39,7.80
2016,09,21,07,40,7.80
2016,09,21,07,41,7.80
2016,09,21,07,42,7.80
2016,09,21,07,43,7.90
2016,09,21,07,44,7.90
2016,09,21,07,45,7.90
2016,09,21,07,46,8.00
2016,09,21,07,47,8.00
2016,09,21,07,48,8.00
2016,09,21,07,49,8.10
2016,09,21,07,50,8.10
2016,09,21,07,51,8.20
2016,09,21,07,52,8.30
2016,09,21,07,53,8.40
2016,09,21,07,54,8.40
2016,09,21,07,55,8.50
2016,09,21,07,56,8.60
2016,09,21,07,57,8.70
2016,09,21,07,58,8.80
2016,09,21,07,59,8.90
2016,09,21,08,00,8.90
2016,09,21,08,01,9.00
2016,09,21,08,02,9.10
2016,09,21,08,03,9.10
2016,09,21,08,04,9.20
2016,09,21,08,05,9.20
2016,09,21,08,06,9.30
2016,09,21,08,07,9.30
2016,09,21,08,08,9.40
2016,09,21,08,09,9.40
2016,09,21,08,10,9.40
2016,09,21,08,11,9.50
2016,09,21,08,12,9.60
2016,09,21,08,13,9.70
2016,09,21,08,14,9.80
2016,09,21,08,15,9.90
2016,09,21,08,16,9.90
2016,09,21,08,17,10.00
2016,09,21,08,18,10.00
2016,09,21,08,19,10.10
2016,09,21,08,20,10.10
2016,09,21,08,21,10.10
2016,09,21,08,22,10.20
2016,09,21,08,23,10.30
2016,09,21,08,24,10.30
2016,09,21,08,25,10.40
2016,09,21,08,26,10.50
2016,09,21,08,27,10.60
2016,09,21,08,28,10.70
2016,09,21,08,29,10.80
2016,09,21,08,30,10.90
2016,09,21,08,31,11.00
2016,09,21,08,32,11.10
2016,09,21,08,33,11.20
2016,09,21,08,34,11.20
2016,09,21,08,35,11.30
2016,09,21,08,36,11.30
2016,09,21,08,37,11.30
2016,09,21,08,38,11.30
2016,09,21,08,39,11.40
2016,09,21,08,40,11.40
2016,09,21,08,41,11.50
2016,09,21,08,42,11.60
2016,09,21,08,43,11.70
2016,09,21,08,44,11.80
2016,09,21,08,45,12.00
2016,09,21,08,46,12.10
2016,09,21,08,47,12.10
2016,09,21,08,48,12.10
2016,09,21,08,49,12.10
2016,09,21,08,50,12.20
2016,09,21,08,51,12.20
2016,09,21,08,52,12.20
2016,09,21,08,53,12.30
2016,09,21,08,54,12.40
2016,09,21,08,55,12.40
2016,09,21,08,56,12.50
2016,09,21,08,57,12.60
2016,09,21,08,58,12.60
2016,09,21,08,59,12.70
2016,09,21,09,00,12.80
2016,09,21,09,01,12.90
2016,09,21,09,02,12.90
2016,09,21,09,03,13.00
2016,09,21,09,04,13.20
2016,09,21,09,05,13.20
2016,09,21,09,06,13.30
2016,09,21,09,07,13.50
2016,09,21,09,08,13.60
2016,09,21,09,09,13.60
2016,09,21,09,10,13.70
2016,09,21,09,11,13.80
2016,09,21,09,12,13.80
2016,09,21,09,13,13.90
2016,09,21,09,14,14.00
2016,09,21,09,15,14.00
2016,09,21,09,16,14.10
2016,09,21,09,17,14.10
2016,09,21,09,18,14.20
2016,09,21,09,19,14.20
2016,09,21,09,20,14.30
2016,09,21,09,21,14.40
2016,09,21,09,22,14.50
2016,09,21,09,23,14.60
2016,09,21,09,24,14.60
2016,09,21,09,25,14.60
2016,09,21,09,26,14.60
2016,09,21,09,27,14.60
2016,09,21,09,28,14.70
2016,09,21,09,29,14.70
2016,09,21,09,30,14.80
2016,09,21,09,31,14.80
2016,09,21,09,32,14.80
2016,09,21,09,33,14.90
2016,09,21,09,34,15.00
2016,09,21,09,35,15.00
2016,09,21,09,36,15.10
2016,09,21,09,37,15.10
2016,09,21,09,38,15.20
2016,09,21,09,39,15.20
2016,09,21,09,40,15.20
2016,09,21,09,41,15.20
2016,09,21,09,42,15.20
2016,09,21,09,43,15.30
2016,09,21,09,44,15.30
2016,09,21,09,45,15.40
2016,09,21,09,46,15.40
2016,09,21,09,47,15.40
2016,09,21,09,48,15.40
2016,09,21,09,49,15.40
2016,09,21,09,50,15.40
2016,09,21,09,51,15.40
2016,09,21,09,52,15.40
2016,09,21,09,53,15.40
2016,09,21,09,54,15.40
2016,09,21,09,55,15.30
2016,09,21,09,56,15.30
2016,09,21,09,57,15.40
2016,09,21,09,58,15.40
2016,09,21,09,59,15.30
2016,09,21,10,00,15.30
2016,09,21,10,01,15.30
2016,09,21,10,02,15.40
2016,09,21,10,03,15.40
2016,09,21,10,04,15.50
2016,09,21,10,05,15.60
2016,09,21,10,06,15.60
2016,09,21,10,07,15.60
2016,09,21,10,08,15.60
2016,09,21,10,09,15.70
2016,09,21,10,10,15.80
2016,09,21,10,11,15.90
2016,09,21,10,12,15.90
2016,09,21,10,13,16.00
2016,09,21,10,14,16.10
2016,09,21,10,15,16.20
2016,09,21,10,16,16.20
2016,09,21,10,17,16.30
2016,09,21,10,18,16.30
2016,09,21,10,19,16.40
2016,09,21,10,20,16.40
2016,09,21,10,21,16.50
2016,09,21,10,22,16.60
2016,09,21,10,23,16.60
2016,09,21,10,24,16.70
2016,09,21,10,25,16.70
2016,09,21,10,26,16.70
2016,09,21,10,27,16.80
2016,09,21,10,28,16.80
2016,09,21,10,29,16.90
2016,09,21,10,30,16.90
2016,09,21,10,31,16.90
2016,09,21,10,32,16.90
2016,09,21,10,33,16.80
2016,09,21,10,34,16.80
2016,09,21,10,35,16.80
2016,09,21,10,36,16.80
2016,09,21,10,37,16.80
2016,09,21,10,38,16.80
2016,09,21,10,39,16.80
2016,09,21,10,40,16.80
2016,09,21,10,41,16.80
2016,09,21,10,42,16.80
2016,09,21,10,43,16.80
2016,09,21,10,44,16.90
2016,09,21,10,45,16.90
2016,09,21,10,46,17.00
2016,09,21,10,47,17.00
2016,09,21,10,48,17.10
2016,09,21,10,49,17.20
2016,09,21,10,50,17.20
2016,09,21,10,51,17.30
2016,09,21,10,52,17.30
2016,09,21,10,53,17.40
2016,09,21,10,54,17.50
2016,09,21,10,55,17.70
2016,09,21,10,56,17.80
2016,09,21,10,57,17.80
2016,09,21,10,58,17.90
2016,09,21,10,59,17.90
2016,09,21,11,00,18.00
2016,09,21,11,01,18.10
2016,09,21,11,02,18.20
2016,09,21,11,03,18.20
2016,09,21,11,04,18.20
2016,09,21,11,05,18.20
2016,09,21,11,06,18.20
2016,09,21,11,07,18.20
2016,09,21,11,08,18.10
2016,09,21,11,09,18.10
2016,09,21,11,10,18.10
2016,09,21,11,11,18.00
2016,09,21,11,12,18.00
2016,09,21,11,13,18.00
2016,09,21,11,14,18.00
2016,09,21,11,15,18.00
2016,09,21,11,16,18.10
2016,09,21,11,17,18.20
2016,09,21,11,18,18.30
2016,09,21,11,19,18.30
2016,09,21,11,20,18.40
2016,09,21,11,21,18.40
2016,09,21,11,22,18.40
2016,09,21,11,23,18.40
2016,09,21,11,24,18.40
2016,09,21,11,25,18.50
2016,09,21,11,26,18.50
2016,09,21,11,27,18.60
2016,09,21,11,28,18.60
2016,09,21,11,29,18.50
2016,09,21,11,30,18.50
2016,09,21,11,31,18.50
2016,09,21,11,32,18.60
2016,09,21,11,33,18.60
2016,09,21,11,34,18.80
2016,09,21,11,35,18.80
2016,09,21,11,36,18.80
2016,09,21,11,37,18.80
2016,09,21,11,38,18.80
2016,09,21,11,39,18.70
2016,09,21,11,40,18.70
2016,09,21,11,41,18.70
2016,09,21,11,42,18.60
2016,09,21,11,43,18.60
2016,09,21,11,44,18.70
2016,09,21,11,45,18.60
2016,09,21,11,46,18.60
2016,09,21,11,47,18.50
2016,09,21,11,48,18.50
2016,09,21,11,49,18.50
2016,09,21,11,50,18.50
2016,09,21,11,51,18.60
2016,09,21,11,52,18.60
2016,09,21,11,53,18.60
2016,09,21,11,54,18.70
2016,09,21,11,55,18.80
2016,09,21,11,56,18.90
2016,09,21,11,57,19.00
2016,09,21,11,58,19.10
2016,09,21,11,59,19.00
2016,09,21,12,00,19.00
2016,09,21,12,01,19.00
2016,09,21,12,02,18.90
2016,09,21,12,03,18.90
2016,09,21,12,04,18.90
2016,09,21,12,05,18.90
2016,09,21,12,06,18.90
2016,09,21,12,07,18.90
2016,09,21,12,08,18.90
2016,09,21,12,09,18.80
2016,09,21,12,10,18.80
2016,09,21,12,11,18.80
2016,09,21,12,12,18.90
2016,09,21,12,13,18.90
2016,09,21,12,14,19.00
2016,09,21,12,15,19.10
2016,09,21,12,16,19.10
2016,09,21,12,17,19.10
2016,09,21,12,18,19.10
2016,09,21,12,19,19.10
2016,09,21,12,20,19.10
2016,09,21,12,21,19.10
2016,09,21,12,22,19.10
2016,09,21,12,23,19.10
2016,09,21,12,24,19.10
2016,09,21,12,25,19.20
2016,09,21,12,26,19.20
2016,09,21,12,27,19.20
2016,09,21,12,28,19.20
2016,09,21,12,29,19.20
2016,09,21,12,30,19.20
2016,09,21,12,31,19.20
2016,09,21,12,32,19.20
2016,09,21,12,33,19.20
2016,09,21,12,34,19.20
2016,09,21,12,35,19.20
2016,09,21,12,36,19.30
2016,09,21,12,37,19.40
2016,09,21,12,38,19.40
2016,09,21,12,39,19.40
2016,09,21,12,40,19.30
2016,09,21,12,41,19.30
2016,09,21,12,42,19.30
2016,09,21,12,43,19.30
2016,09,21,12,44,19.30
2016,09,21,12,45,19.30
2016,09,21,12,46,19.20
2016,09,21,12,47,19.20
2016,09,21,12,48,19.20
2016,09,21,12,49,19.20
2016,09,21,12,50,19.20
2016,09,21,12,51,19.20
2016,09,21,12,52,19.30
2016,09,21,12,53,19.30
2016,09,21,12,54,19.30
2016,09,21,12,55,19.30
2016,09,21,12,56,19.30
2016,09,21,12,57,19.40
2016,09,21,12,58,19.40
2016,09,21,12,59,19.30
2016,09,21,13,00,19.30
2016,09,21,13,01,19.30
2016,09,21,13,02,19.30
2016,09,21,13,03,19.30
2016,09,21,13,04,19.30
2016,09,21,13,05,19.30
2016,09,21,13,06,19.40
2016,09,21,13,07,19.40
2016,09,21,13,08,19.50
2016,09,21,13,09,19.50
2016,09,21,13,10,19.50
2016,09,21,13,11,19.50
2016,09,21,13,12,19.50
2016,09,21,13,13,19.40
2016,09,21,13,14,19.40
2016,09,21,13,15,19.40
2016,09,21,13,16,19.40
2016,09,21,13,17,19.40
2016,09,21,13,18,19.50
2016,09,21,13,19,19.60
2016,09,21,13,20,19.60
2016,09,21,13,21,19.70
2016,09,21,13,22,19.70
2016,09,21,13,23,19.80
2016,09,21,13,24,19.80
2016,09,21,13,25,19.80
2016,09,21,13,26,19.90
2016,09,21,13,27,20.00
2016,09,21,13,28,20.00
2016,09,21,13,29,19.90
2016,09,21,13,30,19.80
2016,09,21,13,31,19.80
2016,09,21,13,32,19.80
2016,09,21,13,33,19.70
2016,09,21,13,34,19.70
2016,09,21,13,35,19.70
2016,09,21,13,36,19.70
2016,09,21,13,37,19.80
2016,09,21,13,38,19.80
2016,09,21,13,39,19.80
2016,09,21,13,40,19.90
2016,09,21,13,41,19.90
2016,09,21,13,42,20.00
2016,09,21,13,43,20.00
2016,09,21,13,44,19.90
2016,09,21,13,45,19.90
2016,09,21,13,46,19.90
2016,09,21,13,47,19.90
2016,09,21,13,48,19.90
2016,09,21,13,49,19.90
2016,09,21,13,50,19.90
2016,09,21,13,51,20.00
2016,09,21,13,52,20.00
2016,09,21,13,53,20.10
2016,09,21,13,54,20.10
2016,09,21,13,55,20.10
2016,09,21,13,56,20.10
2016,09,21,13,57,20.10
2016,09,21,13,58,20.20
2016,09,21,13,59,20.20
2016,09,21,14,00,20.10
2016,09,21,14,01,20.00
2016,09,21,14,02,20.00
2016,09,21,14,03,20.00
2016,09,21,14,04,19.90
2016,09,21,14,05,19.90
2016,09,21,14,06,19.90
2016,09,21,14,07,19.90
2016,09,21,14,08,19.90
2016,09,21,14,09,19.90
2016,09,21,14,10,19.80
2016,09,21,14,11,19.70
2016,09,21,14,12,19.60
2016,09,21,14,13,19.60
2016,09,21,14,14,19.60
2016,09,21,14,15,19.60
2016,09,21,14,16,19.60
2016,09,21,14,17,19.50
2016,09,21,14,18,19.50
2016,09,21,14,19,19.50
2016,09,21,14,20,19.60
2016,09,21,14,21,19.60
2016,09,21,14,22,19.60
2016,09,21,14,23,19.70
2016,09,21,14,24,19.70
2016,09,21,14,25,19.80
2016,09,21,14,26,19.80
2016,09,21,14,27,19.80
2016,09,21,14,28,19.80
2016,09,21,14,29,19.80
2016,09,21,14,30,19.80
2016,09,21,14,31,19.90
2016,09,21,14,32,19.90
2016,09,21,14,33,19.90
2016,09,21,14,34,19.90
2016,09,21,14,35,19.90
2016,09,21,14,36,19.90
2016,09,21,14,37,19.90
2016,09,21,14,38,19.80
2016,09,21,14,39,19.70
2016,09,21,14,40,19.70
2016,09,21,14,41,19.60
2016,09,21,14,42,19.50
2016,09,21,14,43,19.40
2016,09,21,14,44,19.30
2016,09,21,14,45,19.20
2016,09,21,14,46,19.20
2016,09,21,14,47,19.20
2016,09,21,14,48,19.20
2016,09,21,14,49,19.20
2016,09,21,14,50,19.20
2016,09,21,14,51,19.20
2016,09,21,14,52,19.20
2016,09,21,14,53,19.20
2016,09,21,14,54,19.20
2016,09,21,14,55,19.20
2016,09,21,14,56,19.20
2016,09,21,14,57,19.20
2016,09,21,14,58,19.20
2016,09,21,14,59,19.20
2016,09,21,15,00,19.20
2016,09,21,15,01,19.20
2016,09,21,15,02,19.20
2016,09,21,15,03,19.30
2016,09,21,15,04,19.30
2016,09,21,15,05,19.30
2016,09,21,15,06,19.20
2016,09,21,15,07,19.20
2016,09,21,15,08,19.20
2016,09,21,15,09,19.30
2016,09,21,15,10,19.20
2016,09,21,15,11,19.20
2016,09,21,15,12,19.10
2016,09,21,15,13,19.00
2016,09,21,15,14,19.00
2016,09,21,15,15,18.90
2016,09,21,15,16,18.90
2016,09,21,15,17,19.00
2016,09,21,15,18,19.00
2016,09,21,15,19,19.10
2016,09,21,15,20,19.10
2016,09,21,15,21,19.20
2016,09,21,15,22,19.30
2016,09,21,15,23,19.30
2016,09,21,15,24,19.40
2016,09,21,15,25,19.50
2016,09,21,15,26,19.50
2016,09,21,15,27,19.60
2016,09,21,15,28,19.70
2016,09,21,15,29,19.70
2016,09,21,15,30,19.70
2016,09,21,15,31,19.70
2016,09,21,15,32,19.70
2016,09,21,15,33,19.70
2016,09,21,15,34,19.70
2016,09,21,15,35,19.70
2016,09,21,15,36,19.70
2016,09,21,15,37,19.70
2016,09,21,15,38,19.70
2016,09,21,15,39,19.70
2016,09,21,15,40,19.80
2016,09,21,15,41,19.80
2016,09,21,15,42,19.80
2016,09,21,15,43,19.80
2016,09,21,15,44,19.90
2016,09,21,15,45,19.90
2016,09,21,15,46,20.00
2016,09,21,15,47,20.00
2016,09,21,15,48,20.10
2016,09,21,15,49,20.10
2016,09,21,15,50,20.20
2016,09,21,15,51,20.30
2016,09,21,15,52,20.50
2016,09,21,15,53,20.50
2016,09,21,15,54,20.60
2016,09,21,15,55,20.60
2016,09,21,15,56,20.50
2016,09,21,15,57,20.50
2016,09,21,15,58,20.50
2016,09,21,15,59,20.50
2016,09,21,16,00,20.50
2016,09,21,16,01,20.40
2016,09,21,16,02,20.40
2016,09,21,16,03,20.30
2016,09,21,16,04,20.30
2016,09,21,16,05,20.30
2016,09,21,16,06,20.30
2016,09,21,16,07,20.30
2016,09,21,16,08,20.30
2016,09,21,16,09,20.30
2016,09,21,16,10,20.40
2016,09,21,16,11,20.40
2016,09,21,16,12,20.40
2016,09,21,16,13,20.40
2016,09,21,16,14,20.40
2016,09,21,16,15,20.40
2016,09,21,16,16,20.30
2016,09,21,16,17,20.30
2016,09,21,16,18,20.20
2016,09,21,16,19,20.20
2016,09,21,16,20,20.20
2016,09,21,16,21,20.30
2016,09,21,16,22,20.30
2016,09,21,16,23,20.30
2016,09,21,16,24,20.30
2016,09,21,16,25,20.30
2016,09,21,16,26,20.40
2016,09,21,16,27,20.40
2016,09,21,16,28,20.40
2016,09,21,16,29,20.40
2016,09,21,16,30,20.40
2016,09,21,16,31,20.40
2016,09,21,16,32,20.40
2016,09,21,16,33,20.40
2016,09,21,16,34,20.40
2016,09,21,16,35,20.40
2016,09,21,16,36,20.40
2016,09,21,16,37,20.40
2016,09,21,16,38,20.50
2016,09,21,16,39,20.50
2016,09,21,16,40,20.50
2016,09,21,16,41,20.60
2016,09,21,16,42,20.50
2016,09,21,16,43,20.50
2016,09,21,16,44,20.40
2016,09,21,16,45,20.40
2016,09,21,16,46,20.40
2016,09,21,16,47,20.40
2016,09,21,16,48,20.40
2016,09,21,16,49,20.30
2016,09,21,16,50,20.30
2016,09,21,16,51,20.20
2016,09,21,16,52,20.20
2016,09,21,16,53,20.20
2016,09,21,16,54,20.20
2016,09,21,16,55,20.30
2016,09,21,16,56,20.30
2016,09,21,16,57,20.30
2016,09,21,16,58,20.30
2016,09,21,16,59,20.20
2016,09,21,17,00,20.20
2016,09,21,17,01,20.10
2016,09,21,17,02,20.10
2016,09,21,17,03,20.10
2016,09,21,17,04,20.10
2016,09,21,17,05,20.10
2016,09,21,17,06,20.10
2016,09,21,17,07,20.10
2016,09,21,17,08,20.10
2016,09,21,17,09,20.10
2016,09,21,17,10,20.00
2016,09,21,17,11,20.00
2016,09,21,17,12,19.90
2016,09,21,17,13,19.90
2016,09,21,17,14,19.90
2016,09,21,17,15,19.90
2016,09,21,17,16,19.90
2016,09,21,17,17,19.90
2016,09,21,17,18,19.90
2016,09,21,17,19,19.90
2016,09,21,17,20,20.00
2016,09,21,17,21,20.00
2016,09,21,17,22,20.00
2016,09,21,17,23,20.10
2016,09,21,17,24,20.10
2016,09,21,17,25,20.10
2016,09,21,17,26,20.10
2016,09,21,17,27,20.10
2016,09,21,17,28,20.10
2016,09,21,17,29,20.10
2016,09,21,17,30,20.10
2016,09,21,17,31,20.10
2016,09,21,17,32,20.10
2016,09,21,17,33,20.00
2016,09,21,17,34,20.00
2016,09,21,17,35,19.90
2016,09,21,17,36,19.90
2016,09,21,17,37,19.90
2016,09,21,17,38,19.90
2016,09,21,17,39,19.90
2016,09,21,17,40,19.90
2016,09,21,17,41,20.00